DLH1CF LEPA-EDLP

Flight info

Callsign DLH1CF
Flight time N/A
Altitude 38000
Route MEROS DCT LAPIT DCT CHELY DCT LUMAS DCT MAXIR DCT LUSOL DCT BODRU DCT OKTET DCT IRMAR DCT KINES DCT VANAS DCT MOBLO DCT UBIMA DCT SOSAL DCT KORED DCT BERSU DCT DITON/N0435F390 DCT LOKTA DCT TEDGO DCT HAREM DCT LOHRE/N0429F380 Z99 FUL T850 IDEWE T842 PELUN PELUN3H
Aircraft A20N/M-SDE2E3FGHIRWXY/LB1

Departure

Time 2026-05-05 10:49
Airport Palma de Mallorca Airport (LEPA)

Arrival

Time N/A
Airport Paderborn Lippstadt Airport (EDLP)
Time Latitude Longitude Altitude Speed Heading
2026-05-05 10:32 39.54902 2.73802 38 ft 0 kts 249°
2026-05-05 10:37 39.54904 2.73807 38 ft 3 kts 249°
2026-05-05 10:37 39.54912 2.73840 38 ft 4 kts 253°
2026-05-05 10:38 39.54921 2.73873 37 ft 3 kts 246°
2026-05-05 10:38 39.54929 2.73899 35 ft 4 kts 264°
2026-05-05 10:38 39.54924 2.73932 36 ft 4 kts 306°
2026-05-05 10:38 39.54906 2.73955 37 ft 3 kts 328°
2026-05-05 10:39 39.54884 2.73972 38 ft 4 kts 329°
2026-05-05 10:39 39.54861 2.73989 36 ft 4 kts 329°
2026-05-05 10:39 39.54853 2.73995 37 ft 0 kts 329°
2026-05-05 10:41 39.54855 2.73994 37 ft 2 kts 329°
2026-05-05 10:42 39.54888 2.73967 38 ft 6 kts 325°
2026-05-05 10:42 39.54901 2.73959 36 ft 2 kts 339°
2026-05-05 10:42 39.54922 2.73964 38 ft 5 kts 19°
2026-05-05 10:43 39.54946 2.74000 38 ft 7 kts 53°
2026-05-05 10:43 39.54958 2.74007 38 ft 0 kts
2026-05-05 10:43 39.54969 2.74005 38 ft 3 kts 353°
2026-05-05 10:43 39.55005 2.73986 38 ft 9 kts 330°
2026-05-05 10:44 39.55067 2.73936 38 ft 12 kts 328°
2026-05-05 10:44 39.55146 2.73874 38 ft 14 kts 330°
2026-05-05 10:44 39.55235 2.73805 38 ft 16 kts 329°
2026-05-05 10:44 39.55333 2.73725 37 ft 17 kts 333°
2026-05-05 10:45 39.55425 2.73651 38 ft 16 kts 329°
2026-05-05 10:45 39.55527 2.73574 38 ft 16 kts 328°
2026-05-05 10:45 39.55603 2.73516 36 ft 12 kts 334°
2026-05-05 10:45 39.55677 2.73545 37 ft 12 kts 52°
2026-05-05 10:46 39.55727 2.73652 37 ft 15 kts 58°
2026-05-05 10:46 39.55787 2.73781 38 ft 16 kts 57°
2026-05-05 10:46 39.55836 2.73885 38 ft 14 kts 59°
2026-05-05 10:46 39.55893 2.74005 36 ft 15 kts 57°
2026-05-05 10:47 39.55951 2.74127 38 ft 16 kts 58°
2026-05-05 10:47 39.56020 2.74249 38 ft 18 kts 40°
2026-05-05 10:47 39.56120 2.74321 38 ft 14 kts 27°
2026-05-05 10:47 39.56196 2.74344 38 ft 11 kts 345°
2026-05-05 10:48 39.56202 2.74308 38 ft 4 kts 252°
2026-05-05 10:48 39.56208 2.74266 38 ft 9 kts 277°
2026-05-05 10:48 39.56162 2.74131 37 ft 37 kts 236°
2026-05-05 10:48 39.55907 2.73596 38 ft 100 kts 237°
2026-05-05 10:49 39.55457 2.72640 39 ft 146 kts 240°
2026-05-05 10:49 39.54920 2.71435 406 ft 155 kts 235°
2026-05-05 10:49 39.54328 2.70285 1086 ft 149 kts 235°
2026-05-05 10:49 39.53729 2.69126 1579 ft 159 kts 234°
2026-05-05 10:50 39.53110 2.67909 2035 ft 170 kts 235°
2026-05-05 10:50 39.52435 2.66566 2290 ft 191 kts 235°
2026-05-05 10:50 39.51684 2.65053 2700 ft 207 kts 236°
2026-05-05 10:50 39.50894 2.63453 3410 ft 212 kts 235°
2026-05-05 10:51 39.50097 2.61835 4060 ft 218 kts 236°
2026-05-05 10:51 39.49056 2.60331 4224 ft 233 kts 215°
2026-05-05 10:51 39.47610 2.59243 4588 ft 252 kts 206°
2026-05-05 10:51 39.45974 2.58222 5275 ft 264 kts 206°
2026-05-05 10:52 39.44337 2.57182 6359 ft 262 kts 208°
2026-05-05 10:52 39.42651 2.56287 7182 ft 269 kts 191°
2026-05-05 10:52 39.40788 2.56400 8150 ft 273 kts 165°
2026-05-05 10:52 39.39120 2.57614 9053 ft 282 kts 139°
2026-05-05 10:53 39.37836 2.59561 9964 ft 287 kts 129°
2026-05-05 10:53 39.36611 2.61672 10502 ft 304 kts 131°
2026-05-05 10:53 39.35200 2.63851 10767 ft 328 kts 135°
2026-05-05 10:53 39.33594 2.66056 11205 ft 343 kts 137°
2026-05-05 10:54 39.31892 2.68239 11963 ft 346 kts 140°
2026-05-05 10:54 39.30163 2.70392 12652 ft 354 kts 140°
2026-05-05 10:54 39.28366 2.72603 13371 ft 360 kts 140°
2026-05-05 10:54 39.26814 2.75202 14047 ft 375 kts 120°
2026-05-05 10:55 39.25861 2.78375 14703 ft 384 kts 110°
2026-05-05 10:55 39.25110 2.81709 15364 ft 390 kts 108°
2026-05-05 10:55 39.24752 2.85212 15993 ft 401 kts 90°
2026-05-05 10:55 39.25251 2.88774 16612 ft 409 kts 70°
2026-05-05 10:56 39.26542 2.92056 17219 ft 413 kts 55°
2026-05-05 10:56 39.28218 2.95096 17843 ft 418 kts 52°
2026-05-05 10:56 39.29903 2.98115 18426 ft 423 kts 53°
2026-05-05 10:56 39.31551 3.01291 18993 ft 428 kts 56°
2026-05-05 10:57 39.33143 3.04574 19502 ft 434 kts 58°
2026-05-05 10:57 39.34700 3.07928 20093 ft 437 kts 58°
2026-05-05 10:57 39.36250 3.11330 20610 ft 442 kts 59°
2026-05-05 10:57 39.37809 3.14769 21143 ft 446 kts 59°
2026-05-05 10:58 39.39387 3.18249 21663 ft 451 kts 59°
2026-05-05 10:58 39.40984 3.21763 22180 ft 455 kts 59°
2026-05-05 10:58 39.42577 3.25264 22672 ft 460 kts 59°
2026-05-05 10:58 39.44213 3.28843 23200 ft 464 kts 59°
2026-05-05 10:59 39.45874 3.32449 23670 ft 469 kts 59°
2026-05-05 10:59 39.47548 3.36081 24108 ft 472 kts 59°
2026-05-05 10:59 39.49235 3.39745 24541 ft 475 kts 59°
2026-05-05 10:59 39.50933 3.43438 24968 ft 479 kts 59°
2026-05-05 11:00 39.52640 3.47159 25382 ft 482 kts 59°
2026-05-05 11:00 39.54358 3.50909 25808 ft 486 kts 59°
2026-05-05 11:00 39.56087 3.54687 26194 ft 489 kts 59°
2026-05-05 11:00 39.57796 3.58428 26579 ft 492 kts 59°
2026-05-05 11:01 39.59544 3.62258 26957 ft 496 kts 59°
2026-05-05 11:01 39.61303 3.66117 27334 ft 499 kts 59°
2026-05-05 11:01 39.63073 3.70003 27700 ft 502 kts 59°
2026-05-05 11:01 39.64852 3.73917 28049 ft 505 kts 59°
2026-05-05 11:02 39.66642 3.77856 28396 ft 508 kts 59°
2026-05-05 11:02 39.68439 3.81819 28737 ft 510 kts 59°
2026-05-05 11:02 39.70242 3.85800 29110 ft 512 kts 59°
2026-05-05 11:02 39.72052 3.89800 29401 ft 516 kts 59°
2026-05-05 11:03 39.73848 3.93776 29709 ft 519 kts 59°
2026-05-05 11:03 39.75682 3.97837 29975 ft 523 kts 59°
2026-05-05 11:03 39.77526 4.01925 30267 ft 525 kts 59°
2026-05-05 11:03 39.79371 4.06016 30451 ft 526 kts 59°
2026-05-05 11:04 39.81218 4.10128 30717 ft 528 kts 59°
2026-05-05 11:04 39.83072 4.14234 31004 ft 530 kts 57°
2026-05-05 11:04 39.85303 4.18070 31336 ft 528 kts 44°
2026-05-05 11:04 39.88003 4.21261 31704 ft 521 kts 32°
2026-05-05 11:05 39.91014 4.23684 32103 ft 512 kts 20°
2026-05-05 11:05 39.94301 4.25331 32435 ft 502 kts
2026-05-05 11:05 39.97694 4.26123 32730 ft 491 kts 356°
2026-05-05 11:05 40.01086 4.26284 33040 ft 487 kts 353°
2026-05-05 11:06 40.04480 4.26469 33415 ft 489 kts 356°
2026-05-05 11:06 40.07875 4.26889 33762 ft 492 kts 359°
2026-05-05 11:06 40.11272 4.27512 34090 ft 494 kts
2026-05-05 11:06 40.14660 4.28253 34398 ft 494 kts
2026-05-05 11:07 40.18039 4.29043 34699 ft 493 kts
2026-05-05 11:07 40.21367 4.29837 34925 ft 493 kts
2026-05-05 11:07 40.24742 4.30644 35194 ft 493 kts
2026-05-05 11:07 40.28110 4.31448 35470 ft 491 kts
2026-05-05 11:08 40.31471 4.32248 35728 ft 490 kts
2026-05-05 11:08 40.34827 4.33045 35974 ft 490 kts
2026-05-05 11:08 40.38178 4.33840 36225 ft 489 kts
2026-05-05 11:08 40.41525 4.34635 36459 ft 489 kts
2026-05-05 11:09 40.44871 4.35430 36657 ft 489 kts
2026-05-05 11:09 40.48221 4.36228 36888 ft 488 kts
2026-05-05 11:09 40.51514 4.37014 37107 ft 488 kts
2026-05-05 11:09 40.54850 4.37810 37319 ft 487 kts
2026-05-05 11:10 40.58181 4.38606 37519 ft 486 kts
2026-05-05 11:10 40.61509 4.39402 37712 ft 486 kts
2026-05-05 11:10 40.64832 4.40197 37897 ft 485 kts
2026-05-05 11:11 40.71507 4.41794 37965 ft 491 kts
2026-05-05 11:11 40.78234 4.43407 37966 ft 498 kts
2026-05-05 11:12 40.85083 4.45056 37965 ft 503 kts
2026-05-05 11:12 40.91997 4.46725 37962 ft 507 kts
2026-05-05 11:13 40.98949 4.48407 37962 ft 509 kts
2026-05-05 11:13 41.05877 4.50085 37985 ft 511 kts
2026-05-05 11:14 41.12887 4.51789 37960 ft 512 kts
2026-05-05 11:14 41.19901 4.53502 37961 ft 513 kts
2026-05-05 11:15 41.26928 4.55220 37984 ft 514 kts
2026-05-05 11:15 41.33966 4.56944 37961 ft 515 kts
2026-05-05 11:16 41.40967 4.58665 37961 ft 515 kts
2026-05-05 11:16 41.48019 4.60399 37991 ft 516 kts
2026-05-05 11:17 41.55081 4.62140 37965 ft 517 kts
2026-05-05 11:17 41.62152 4.63888 37963 ft 517 kts
2026-05-05 11:18 41.69173 4.65717 37992 ft 520 kts
2026-05-05 11:18 41.76032 4.69072 37965 ft 530 kts 22°
2026-05-05 11:19 41.82450 4.74022 37969 ft 533 kts 27°
2026-05-05 11:19 41.88825 4.79117 37983 ft 533 kts 27°
2026-05-05 11:20 41.95194 4.84236 37966 ft 533 kts 27°
2026-05-05 11:20 42.01507 4.89338 37964 ft 533 kts 27°
2026-05-05 11:21 42.07860 4.94487 37963 ft 533 kts 27°
2026-05-05 11:21 42.14203 4.99639 37961 ft 532 kts 27°
2026-05-05 11:22 42.20540 5.04800 37961 ft 532 kts 27°
2026-05-05 11:22 42.26828 5.09932 37960 ft 531 kts 27°
2026-05-05 11:23 42.33154 5.15106 37959 ft 531 kts 28°
2026-05-05 11:23 42.39470 5.20286 37962 ft 531 kts 28°
2026-05-05 11:24 42.45783 5.25475 37965 ft 531 kts 28°
2026-05-05 11:24 42.52093 5.30673 37951 ft 531 kts 28°
2026-05-05 11:25 42.58347 5.35840 37957 ft 529 kts 28°
2026-05-05 11:25 42.64632 5.41044 37964 ft 529 kts 28°
2026-05-05 11:26 42.70910 5.46253 37955 ft 528 kts 28°
2026-05-05 11:26 42.77177 5.51467 37958 ft 528 kts 28°
2026-05-05 11:27 42.83403 5.56658 37959 ft 528 kts 28°
2026-05-05 11:27 42.89668 5.61895 37974 ft 528 kts 28°
2026-05-05 11:28 42.95927 5.67139 37954 ft 528 kts 28°
2026-05-05 11:28 43.02126 5.72347 37950 ft 522 kts 28°
2026-05-05 11:29 43.08312 5.77555 37962 ft 523 kts 28°
2026-05-05 11:29 43.14513 5.82787 37957 ft 524 kts 29°
2026-05-05 11:30 43.20724 5.88041 37956 ft 525 kts 29°
2026-05-05 11:30 43.26904 5.93283 37962 ft 525 kts 29°
2026-05-05 11:31 43.33128 5.98573 37954 ft 527 kts 29°
2026-05-05 11:31 43.39657 6.02958 37939 ft 519 kts 13°
2026-05-05 11:32 43.46666 6.04752 37942 ft 509 kts 359°
2026-05-05 11:32 43.53738 6.05461 37937 ft 510 kts 359°
2026-05-05 11:33 43.60779 6.06185 37941 ft 512 kts 359°
2026-05-05 11:33 43.67899 6.06907 37958 ft 514 kts 359°
2026-05-05 11:34 43.75027 6.08029 37943 ft 519 kts
2026-05-05 11:34 43.81922 6.11151 37943 ft 525 kts 21°
2026-05-05 11:35 43.88494 6.15603 37949 ft 527 kts 23°
2026-05-05 11:35 43.95040 6.20038 37944 ft 527 kts 23°
2026-05-05 11:36 44.01622 6.24532 37944 ft 528 kts 23°
2026-05-05 11:36 44.08223 6.29059 37939 ft 530 kts 23°
2026-05-05 11:37 44.14798 6.33582 37936 ft 531 kts 23°
2026-05-05 11:37 44.21412 6.38145 37945 ft 531 kts 24°
2026-05-05 11:38 44.28030 6.42719 37951 ft 530 kts 24°
2026-05-05 11:38 44.34644 6.47301 37912 ft 530 kts 23°
2026-05-05 11:39 44.41232 6.51874 37945 ft 528 kts 24°
2026-05-05 11:39 44.47765 6.56421 37957 ft 527 kts 24°
2026-05-05 11:40 44.54323 6.61002 37934 ft 525 kts 24°
2026-05-05 11:40 44.60854 6.65576 37945 ft 524 kts 24°
2026-05-05 11:41 44.67374 6.70151 37945 ft 524 kts 24°
2026-05-05 11:41 44.73856 6.74711 37952 ft 524 kts 24°
2026-05-05 11:42 44.80686 6.78031 37957 ft 517 kts
2026-05-05 11:42 44.87782 6.78519 37964 ft 508 kts 353°
2026-05-05 11:43 44.94853 6.78056 37963 ft 509 kts 353°
2026-05-05 11:43 45.01892 6.77602 37962 ft 510 kts 353°
2026-05-05 11:44 45.08982 6.77134 37976 ft 510 kts 353°
2026-05-05 11:44 45.16072 6.76664 37959 ft 510 kts 353°
2026-05-05 11:45 45.23152 6.76189 37965 ft 510 kts 353°
2026-05-05 11:45 45.30192 6.75722 37946 ft 509 kts 353°
2026-05-05 11:46 45.37264 6.75250 37954 ft 509 kts 353°